Terug naar catalogus

STARLINK-31346

ActiefCommunicatieVLEO
NORAD 58943·PAYLOAD·🇺🇸 United States

Gelanceerd Feb 10, 2024 vanaf Vandenberg Space Force Base

Loading…

Volgende Passages (komende 24 uur)

TLE

VersSource: CelesTrak SupGP

Epoch: Sep 15, 2026, 02:56 UTC

1 58943C 24027N   26258.12270833  .00028895  00000+0  85372-3 0  2580
2 58943  53.1579 146.5839 0001226  86.5450 357.4753 15.34375321    15

Volg STARLINK-31346 in realtime met AllMySat

Download on the App Store